When you browse on this site, cookies collect data to enhance your experience and personalize the content and advertising you see.
Visit our Privacy Policy to learn more. By continuing to use the site, you agree to this use of cookies and data.
  • In Hungary
  • List of Countries
  • For 7 days
  • Water Temperature
  • Satellite Maps
  • Weather Map
  • News
  • Weather Widgets
  • user-avatar
    Login

    Hourly Weather Chaplinka

    Today, 19 November, Monday

    Time Temperature Precipitation Wind Pressure Humidity
    00:00 +1°C° 0 mm 4 mps 766 mmHg 84%
    01:00 +1°C° 0 mm 5 mps 765 mmHg 84%
    02:00 +1°C° 0 mm 5 mps 765 mmHg 84%
    03:00 +1°C° 0 mm 5 mps 765 mmHg 83%
    04:00 +1°C° 0 mm 6 mps 765 mmHg 82%
    05:00 +1°C° 0 mm 6 mps 764 mmHg 80%
    06:00 +1°C° 0 mm 6 mps 764 mmHg 80%
    07:00 0°C° 0 mm 7 mps 764 mmHg 79%
    08:00 0°C° 0 mm 7 mps 764 mmHg 78%
    09:00 +1°C° 0.7 mm 8 mps 764 mmHg 79%
    10:00 +1°C° 0.7 mm 8 mps 764 mmHg 80%
    11:00 +2°C° 0.7 mm 9 mps 764 mmHg 80%
    12:00 +2°C° 1.6 mm 9 mps 763 mmHg 82%
    13:00 +2°C° 1.6 mm 9 mps 763 mmHg 84%
    14:00 +2°C° 1.6 mm 10 mps 762 mmHg 85%
    15:00 +2°C° 3.2 mm 10 mps 761 mmHg 87%
    16:00 +2°C° 3.2 mm 10 mps 761 mmHg 89%
    17:00 +2°C° 3.2 mm 10 mps 760 mmHg 91%
    18:00 +3°C° 1.4 mm 9 mps 760 mmHg 91%
    19:00 +3°C° 1.4 mm 9 mps 760 mmHg 91%
    20:00 +3°C° 1.4 mm 9 mps 759 mmHg 91%
    21:00 +5°C° 0.5 mm 9 mps 759 mmHg 91%
    22:00 +5°C° 0.5 mm 8 mps 759 mmHg 92%
    23:00 +5°C° 0.5 mm 7 mps 758 mmHg 92%

    Tomorrow, 20 November, Tuesday

    Time Temperature Precipitation Wind Pressure Humidity
    00:00 +7°C° 0.1 mm 6 mps 758 mmHg 93%
    01:00 +7°C° 0.1 mm 6 mps 758 mmHg 94%
    02:00 +7°C° 0.1 mm 5 mps 758 mmHg 95%
    03:00 +7°C° 0.1 mm 4 mps 758 mmHg 95%
    04:00 +7°C° 0.1 mm 4 mps 758 mmHg 95%
    05:00 +7°C° 0.1 mm 4 mps 758 mmHg 95%
    06:00 +6°C° 0.1 mm 5 mps 759 mmHg 94%
    07:00 +5°C° 0.1 mm 6 mps 759 mmHg 92%
    08:00 +5°C° 0.1 mm 7 mps 760 mmHg 91%
    09:00 +5°C° 0 mm 7 mps 761 mmHg 88%
    10:00 +4°C° 0 mm 7 mps 761 mmHg 84%
    11:00 +4°C° 0 mm 7 mps 762 mmHg 80%
    12:00 +4°C° 0 mm 6 mps 762 mmHg 78%
    13:00 +5°C° 0 mm 5 mps 763 mmHg 76%
    14:00 +5°C° 0 mm 5 mps 763 mmHg 74%
    15:00 +3°C° 0 mm 5 mps 763 mmHg 75%
    16:00 +3°C° 0 mm 5 mps 764 mmHg 77%
    17:00 +2°C° 0 mm 5 mps 764 mmHg 78%
    18:00 +2°C° 0 mm 5 mps 765 mmHg 78%
    19:00 +2°C° 0 mm 5 mps 765 mmHg 79%
    20:00 +1°C° 0 mm 5 mps 765 mmHg 79%
    21:00 +1°C° 0 mm 5 mps 765 mmHg 79%
    22:00 +1°C° 0 mm 5 mps 765 mmHg 78%
    23:00 +1°C° 0 mm 5 mps 766 mmHg 78%

    Day after tomorrow, 21 November, Wednesday

    Time Temperature Precipitation Wind Pressure Humidity
    00:00 0°C° 0 mm 5 mps 766 mmHg 78%
    01:00 0°C° 0 mm 5 mps 766 mmHg 78%
    02:00 -1°C° 0 mm 4 mps 766 mmHg 78%
    03:00 -1°C° 0 mm 5 mps 765 mmHg 78%
    04:00 -1°C° 0 mm 5 mps 765 mmHg 78%
    05:00 -1°C° 0 mm 5 mps 765 mmHg 77%
    06:00 -2°C° 0 mm 5 mps 765 mmHg 77%
    07:00 -2°C° 0 mm 5 mps 765 mmHg 76%
    08:00 -3°C° 0 mm 6 mps 765 mmHg 76%
    09:00 -1°C° 0 mm 6 mps 765 mmHg 72%
    10:00 +1°C° 0 mm 6 mps 765 mmHg 69%
    11:00 +2°C° 0 mm 6 mps 765 mmHg 65%
    12:00 +2°C° 0 mm 6 mps 765 mmHg 63%
    13:00 +3°C° 0 mm 6 mps 765 mmHg 61%
    14:00 +3°C° 0 mm 6 mps 765 mmHg 60%
    15:00 +2°C° 0 mm 5 mps 765 mmHg 62%
    16:00 +1°C° 0 mm 5 mps 765 mmHg 65%
    17:00 0°C° 0 mm 5 mps 765 mmHg 68%
    18:00 -1°C° 0 mm 6 mps 765 mmHg 71%
    19:00 -2°C° 0 mm 6 mps 765 mmHg 75%
    20:00 -2°C° 0 mm 6 mps 765 mmHg 78%
    21:00 -3°C° 0 mm 6 mps 766 mmHg 80%
    22:00 -3°C° 0 mm 6 mps 766 mmHg 82%
    23:00 -2°C° 0 mm 5 mps 766 mmHg 84%

    22 November, Thursday

    Time Temperature Precipitation Wind Pressure Humidity
    00:00 -4°C° 0 mm 5 mps 766 mmHg 83%
    01:00 -4°C° 0 mm 5 mps 766 mmHg 82%
    02:00 -4°C° 0 mm 5 mps 766 mmHg 82%
    03:00 -4°C° 0 mm 5 mps 766 mmHg 81%
    04:00 -4°C° 0 mm 5 mps 766 mmHg 80%
    05:00 -4°C° 0 mm 5 mps 766 mmHg 80%
    06:00 -4°C° 0 mm 5 mps 766 mmHg 78%
    07:00 -4°C° 0 mm 5 mps 766 mmHg 77%
    08:00 -4°C° 0 mm 5 mps 767 mmHg 75%
    09:00 -2°C° 0 mm 5 mps 767 mmHg 69%
    10:00 -1°C° 0 mm 5 mps 767 mmHg 63%
    11:00 +1°C° 0 mm 5 mps 767 mmHg 57%
    12:00 +1°C° 0 mm 5 mps 767 mmHg 57%
    13:00 +1°C° 0 mm 5 mps 767 mmHg 57%
    14:00 +2°C° 0 mm 5 mps 766 mmHg 56%
    15:00 0°C° 0 mm 4 mps 767 mmHg 62%
    16:00 -1°C° 0 mm 4 mps 767 mmHg 68%
    17:00 -2°C° 0 mm 4 mps 767 mmHg 74%
    18:00 -2°C° 0 mm 4 mps 767 mmHg 77%
    19:00 -3°C° 0 mm 4 mps 768 mmHg 80%
    20:00 -3°C° 0 mm 4 mps 768 mmHg 83%
    21:00 -3°C° 0 mm 4 mps 768 mmHg 83%
    22:00 -4°C° 0 mm 4 mps 768 mmHg 83%
    23:00 -4°C° 0 mm 4 mps 768 mmHg 83%

    23 November, Friday

    Time Temperature Precipitation Wind Pressure Humidity
    00:00 -4°C° 0 mm 4 mps 768 mmHg 83%
    01:00 -4°C° 0 mm 4 mps 768 mmHg 82%
    02:00 -4°C° 0 mm 4 mps 768 mmHg 81%
    03:00 -4°C° 0 mm 4 mps 769 mmHg 81%
    04:00 -4°C° 0 mm 4 mps 769 mmHg 80%
    05:00 -4°C° 0 mm 4 mps 769 mmHg 80%
    06:00 -4°C° 0 mm 4 mps 769 mmHg 78%
    07:00 -4°C° 0 mm 4 mps 770 mmHg 77%
    08:00 -4°C° 0 mm 4 mps 770 mmHg 76%
    09:00 -3°C° 0 mm 4 mps 770 mmHg 71%
    10:00 -1°C° 0 mm 4 mps 771 mmHg 66%
    11:00 0°C° 0 mm 4 mps 771 mmHg 60%
    12:00 0°C° 0 mm 4 mps 771 mmHg 60%
    13:00 0°C° 0 mm 4 mps 771 mmHg 59%
    14:00 +1°C° 0 mm 4 mps 771 mmHg 59%
    15:00 0°C° 0 mm 4 mps 771 mmHg 65%
    16:00 -2°C° 0 mm 4 mps 771 mmHg 71%
    17:00 -3°C° 0 mm 4 mps 772 mmHg 77%
    18:00 -3°C° 0 mm 4 mps 772 mmHg 79%
    19:00 -3°C° 0 mm 4 mps 772 mmHg 82%
    20:00 -3°C° 0 mm 4 mps 773 mmHg 84%
    21:00 -3°C° 0 mm 4 mps 773 mmHg 85%
    22:00 -4°C° 0 mm 4 mps 773 mmHg 86%
    23:00 -4°C° 0 mm 4 mps 773 mmHg 87%

    24 November, Saturday

    Time Temperature Precipitation Wind Pressure Humidity
    00:00 -4°C° 0 mm 4 mps 773 mmHg 87%
    01:00 -4°C° 0 mm 4 mps 773 mmHg 87%
    02:00 -4°C° 0 mm 4 mps 772 mmHg 88%
    03:00 -4°C° 0 mm 4 mps 772 mmHg 88%
    04:00 -4°C° 0 mm 3 mps 772 mmHg 88%
    05:00 -4°C° 0 mm 3 mps 772 mmHg 88%
    06:00 -2°C° 0 mm 3 mps 772 mmHg 87%
    07:00 -3°C° 0 mm 4 mps 772 mmHg 86%
    08:00 -3°C° 0 mm 4 mps 772 mmHg 84%
    09:00 -2°C° 0 mm 4 mps 772 mmHg 78%
    10:00 0°C° 0 mm 4 mps 772 mmHg 72%
    11:00 +1°C° 0 mm 4 mps 772 mmHg 66%
    12:00 +3°C° 0 mm 3 mps 771 mmHg 65%
    13:00 +3°C° 0 mm 3 mps 771 mmHg 63%
    14:00 +4°C° 0 mm 3 mps 770 mmHg 62%
    15:00 +2°C° 0 mm 3 mps 770 mmHg 67%
    16:00 +1°C° 0 mm 3 mps 770 mmHg 72%
    17:00 0°C° 0 mm 3 mps 770 mmHg 77%
    18:00 0°C° 0 mm 3 mps 770 mmHg 78%
    19:00 -1°C° 0 mm 3 mps 770 mmHg 79%
    20:00 -1°C° 0 mm 3 mps 770 mmHg 81%
    21:00 -1°C° 0 mm 3 mps 769 mmHg 81%
    22:00 -1°C° 0 mm 2 mps 769 mmHg 82%
    23:00 -2°C° 0 mm 2 mps 769 mmHg 83%
    Show more